| time (UTC) | temp F | wind direction | speed knots | gust knots | rain 1hr in | rain 24hr in | rain mn in | humidity % | barometer mb |
| 20260504033659 | 59 | 180 | 0.9 | 0.9 | 0.00 | 0.00 | 0.00 | 61 | 1005.5 |
| 20260504033156 | 59 | 277 | 1.7 | 1.7 | 0.00 | 0.00 | 0.00 | 60 | 1005.8 |
| 20260504032653 | 59 | 212 | 0.0 | 0.9 | 0.00 | 0.00 | 0.00 | 61 | 1005.9 |
| 20260504032150 | 59 | 234 | 1.7 | 1.7 | 0.00 | 0.00 | 0.00 | 60 | 1006.1 |
| 20260504031647 | 59 | 199 | 0.0 | 0.0 | 0.00 | 0.00 | 0.00 | 61 | 1006.0 |
| 20260504031144 | 59 | 199 | 0.0 | 0.0 | 0.00 | 0.00 | 0.00 | 60 | 1006.0 |
| 20260504030640 | 59 | 202 | 0.9 | 0.9 | 0.00 | 0.00 | 0.00 | 61 | 1006.0 |
| 20260504030137 | 59 | 188 | 0.9 | 0.9 | 0.00 | 0.00 | 0.00 | 60 | 1006.0 |
| 20260504025634 | 58 | 197 | 0.0 | 0.0 | 0.00 | 0.00 | 0.00 | 61 | 1005.9 |
| 20260504025131 | 59 | 190 | 0.0 | 0.0 | 0.00 | 0.00 | 0.00 | 61 | 1006.0 |
| 20260504024628 | 59 | 190 | 0.0 | 0.0 | 0.00 | 0.00 | 0.00 | 61 | 1005.9 |
| 20260504024125 | 58 | 186 | 0.0 | 0.0 | 0.00 | 0.00 | 0.00 | 61 | 1006.0 |
| 20260504023621 | 58 | 194 | 0.0 | 0.0 | 0.00 | 0.00 | 0.00 | 62 | 1005.9 |
| 20260504023117 | 58 | 186 | 0.0 | 0.9 | 0.00 | 0.00 | 0.00 | 62 | 1006.0 |
| 20260504022614 | 58 | 199 | 0.0 | 0.0 | 0.00 | 0.00 | 0.00 | 62 | 1005.9 |
| 20260504022110 | 58 | 215 | 0.0 | 0.0 | 0.00 | 0.00 | 0.00 | 62 | 1006.0 |
| 20260504021608 | 58 | 183 | 0.0 | 0.0 | 0.00 | 0.00 | 0.00 | 62 | 1005.9 |
| 20260504021104 | 58 | 183 | 0.0 | 0.0 | 0.00 | 0.00 | 0.00 | 62 | 1006.0 |
| 20260504020601 | 58 | 183 | 0.0 | 0.0 | 0.00 | 0.00 | 0.00 | 62 | 1005.9 |
| 20260504020057 | 58 | 183 | 0.0 | 0.0 | 0.00 | 0.00 | 0.00 | 62 | 1005.8 |
| 20260504015554 | 58 | 183 | 0.0 | 0.0 | 0.00 | 0.00 | 0.00 | 62 | 1005.9 |
| 20260504015050 | 59 | 183 | 0.0 | 0.0 | 0.00 | 0.00 | 0.00 | 62 | 1005.7 |
| 20260504014546 | 59 | 183 | 0.0 | 0.0 | 0.00 | 0.00 | 0.00 | 60 | 1005.7 |
| 20260504014044 | 60 | 183 | 0.0 | 0.0 | 0.00 | 0.00 | 0.00 | 59 | 1005.7 |
| 20260504013541 | 60 | 182 | 0.0 | 0.0 | 0.00 | 0.00 | 0.00 | 58 | 1005.7 |
| 20260504013038 | 60 | 182 | 0.0 | 0.0 | 0.00 | 0.00 | 0.00 | 57 | 1005.6 |
| 20260504012536 | 61 | 182 | 0.0 | 0.0 | 0.00 | 0.00 | 0.00 | 56 | 1005.7 |
| 20260504012033 | 61 | 183 | 0.0 | 0.0 | 0.00 | 0.00 | 0.00 | 56 | 1005.4 |
| 20260504011530 | 62 | 182 | 0.0 | 0.0 | 0.00 | 0.00 | 0.00 | 54 | 1005.6 |
| 20260504011026 | 62 | 185 | 0.0 | 0.0 | 0.00 | 0.00 | 0.00 | 53 | 1005.5 |
| 20260504010522 | 63 | 191 | 0.0 | 0.0 | 0.00 | 0.00 | 0.00 | 53 | 1005.4 |
| 20260504010018 | 63 | 191 | 0.0 | 0.0 | 0.00 | 0.00 | 0.00 | 52 | 1005.4 |
| 20260504005515 | 64 | 191 | 0.0 | 0.0 | 0.00 | 0.00 | 0.00 | 51 | 1005.4 |
| 20260504005012 | 64 | 192 | 0.0 | 0.0 | 0.00 | 0.00 | 0.00 | 51 | 1005.3 |
| 20260504004510 | 65 | 222 | 0.9 | 0.9 | 0.00 | 0.00 | 0.00 | 49 | 1005.4 |
| 20260504004007 | 65 | 209 | 0.9 | 0.9 | 0.00 | 0.00 | 0.00 | 48 | 1005.2 |
| 20260504003503 | 66 | 145 | 2.6 | 2.6 | 0.00 | 0.00 | 0.00 | 47 | 1005.5 |
| 20260504003000 | 66 | 229 | 3.5 | 4.3 | 0.00 | 0.00 | 0.00 | 47 | 1005.3 |
| 20260504002456 | 66 | 239 | 2.6 | 2.6 | 0.00 | 0.00 | 0.00 | 47 | 1005.4 |
| 20260504001954 | 66 | 264 | 0.9 | 1.7 | 0.00 | 0.00 | 0.00 | 47 | 1005.2 |
| 20260504001451 | 67 | 202 | 0.9 | 0.9 | 0.00 | 0.00 | 0.00 | 46 | 1005.3 |
| 20260504000948 | 67 | 224 | 0.9 | 0.9 | 0.00 | 0.00 | 0.00 | 45 | 1005.5 |
| 20260504000445 | 67 | 225 | 2.6 | 5.2 | 0.00 | 0.00 | 0.00 | 45 | 1005.4 |
| 20260503235942 | 67 | 307 | 2.6 | 4.3 | 0.00 | 0.00 | 0.00 | 45 | 1005.4 |
| 20260503235440 | 68 | 227 | 3.5 | 5.2 | 0.00 | 0.00 | 0.00 | 44 | 1005.3 |
| 20260503234937 | 68 | 227 | 1.7 | 1.7 | 0.00 | 0.00 | 0.00 | 44 | 1005.5 |
| 20260503234435 | 68 | 315 | 3.5 | 5.2 | 0.00 | 0.00 | 0.00 | 43 | 1005.3 |
| 20260503233933 | 68 | 208 | 4.3 | 7.0 | 0.00 | 0.00 | 0.00 | 42 | 1005.4 |
| 20260503233429 | 68 | 231 | 2.6 | 2.6 | 0.00 | 0.00 | 0.00 | 43 | 1005.2 |
| 20260503232925 | 68 | 265 | 7.0 | 8.7 | 0.00 | 0.00 | 0.00 | 42 | 1005.4 |
| 20260503232422 | 68 | 342 | 2.6 | 2.6 | 0.00 | 0.00 | 0.00 | 42 | 1005.6 |
| 20260503231920 | 68 | 255 | 2.6 | 2.6 | 0.00 | 0.00 | 0.00 | 42 | 1005.4 |
| 20260503231417 | 69 | 230 | 2.6 | 4.3 | 0.00 | 0.00 | 0.00 | 42 | 1005.4 |
| 20260503230913 | 69 | 222 | 3.5 | 5.2 | 0.00 | 0.00 | 0.00 | 42 | 1005.4 |
| 20260503230410 | 69 | 217 | 6.1 | 7.8 | 0.00 | 0.00 | 0.00 | 42 | 1005.4 |
| 20260503225908 | 69 | 189 | 3.5 | 6.1 | 0.00 | 0.00 | 0.00 | 42 | 1005.4 |
| 20260503225404 | 69 | 192 | 5.2 | 6.1 | 0.00 | 0.00 | 0.00 | 42 | 1005.8 |
| 20260503224900 | 69 | 229 | 5.2 | 6.1 | 0.00 | 0.00 | 0.00 | 42 | 1005.7 |
| 20260503224357 | 69 | 245 | 7.0 | 11.3 | 0.00 | 0.00 | 0.00 | 41 | 1005.7 |
| 20260503223855 | 69 | 182 | 5.2 | 7.0 | 0.00 | 0.00 | 0.00 | 42 | 1005.6 |
| 20260503223353 | 68 | 245 | 8.7 | 12.2 | 0.00 | 0.00 | 0.00 | 41 | 1005.8 |
| 20260503222848 | 68 | 219 | 4.3 | 6.1 | 0.00 | 0.00 | 0.00 | 41 | 1005.7 |
| 20260503222347 | 69 | 270 | 5.2 | 9.6 | 0.00 | 0.00 | 0.00 | 41 | 1006.0 |
| 20260503221844 | 69 | 201 | 6.1 | 11.3 | 0.00 | 0.00 | 0.00 | 41 | 1006.0 |
| 20260503221343 | 69 | 195 | 4.3 | 5.2 | 0.00 | 0.00 | 0.00 | 41 | 1005.9 |
| 20260503220838 | 69 | 242 | 9.6 | 11.3 | 0.00 | 0.00 | 0.00 | 41 | 1005.8 |
| 20260503220335 | 69 | 233 | 6.1 | 7.0 | 0.00 | 0.00 | 0.00 | 41 | 1006.3 |
| 20260503215832 | 68 | 251 | 6.1 | 9.6 | 0.00 | 0.00 | 0.00 | 42 | 1006.1 |
| 20260503215329 | 68 | 150 | 8.7 | 9.6 | 0.00 | 0.00 | 0.00 | 41 | 1006.1 |
| 20260503214827 | 68 | 227 | 9.6 | 12.2 | 0.00 | 0.00 | 0.00 | 41 | 1006.1 |
| 20260503214324 | 68 | 237 | 6.1 | 9.6 | 0.00 | 0.00 | 0.00 | 41 | 1006.4 |
| 20260503213822 | 68 | 232 | 12.2 | 13.9 | 0.00 | 0.00 | 0.00 | 41 | 1006.5 |
| 20260503213319 | 67 | 280 | 7.8 | 9.6 | 0.00 | 0.00 | 0.00 | 41 | 1006.5 |
| 20260503212816 | 69 | 227 | 12.2 | 15.6 | 0.00 | 0.00 | 0.00 | 40 | 1006.7 |
| 20260503212314 | 68 | 202 | 3.5 | 4.3 | 0.00 | 0.00 | 0.00 | 40 | 1006.4 |
| 20260503211811 | 69 | 202 | 7.8 | 11.3 | 0.00 | 0.00 | 0.00 | 39 | 1006.9 |
| 20260503211308 | 69 | 261 | 5.2 | 7.8 | 0.00 | 0.00 | 0.00 | 40 | 1006.8 |
| 20260503210807 | 68 | 233 | 5.2 | 6.1 | 0.00 | 0.00 | 0.00 | 40 | 1006.8 |
| 20260503210306 | 68 | 237 | 8.7 | 12.2 | 0.00 | 0.00 | 0.00 | 40 | 1006.7 |
| 20260503205800 | 68 | 148 | 7.8 | 9.6 | 0.00 | 0.00 | 0.00 | 41 | 1007.2 |
| 20260503205257 | 68 | 255 | 8.7 | 14.8 | 0.00 | 0.00 | 0.00 | 42 | 1007.0 |
| 20260503204753 | 67 | 231 | 7.0 | 9.6 | 0.00 | 0.00 | 0.00 | 43 | 1006.9 |
| 20260503204251 | 67 | 231 | 6.1 | 11.3 | 0.00 | 0.00 | 0.00 | 45 | 1007.2 |
| 20260503203748 | 67 | 282 | 9.6 | 12.2 | 0.00 | 0.00 | 0.00 | 45 | 1007.2 |
| 20260503203246 | 67 | 146 | 7.0 | 9.6 | 0.00 | 0.00 | 0.00 | 46 | 1007.7 |
| 20260503202743 | 66 | 137 | 7.0 | 12.2 | 0.00 | 0.00 | 0.00 | 46 | 1007.4 |
| 20260503202241 | 66 | 226 | 6.1 | 9.6 | 0.00 | 0.00 | 0.00 | 47 | 1007.7 |
| 20260503201738 | 65 | 217 | 12.2 | 19.1 | 0.00 | 0.00 | 0.00 | 46 | 1007.9 |
| 20260503201235 | 66 | 202 | 6.1 | 7.0 | 0.00 | 0.00 | 0.00 | 46 | 1008.0 |
| 20260503200732 | 65 | 237 | 7.8 | 8.7 | 0.00 | 0.00 | 0.00 | 46 | 1008.3 |
| 20260503200228 | 65 | 217 | 7.8 | 11.3 | 0.00 | 0.00 | 0.00 | 47 | 1008.2 |
| 20260503195725 | 65 | 194 | 6.1 | 7.8 | 0.00 | 0.00 | 0.00 | 46 | 1008.4 |
| 20260503195222 | 66 | 155 | 8.7 | 15.6 | 0.00 | 0.00 | 0.00 | 44 | 1008.4 |
| 20260503194720 | 65 | 235 | 7.0 | 9.6 | 0.00 | 0.00 | 0.00 | 45 | 1008.4 |
| 20260503194215 | 64 | 179 | 7.0 | 8.7 | 0.00 | 0.00 | 0.00 | 44 | 1008.4 |
| 20260503193711 | 64 | 210 | 8.7 | 11.3 | 0.00 | 0.00 | 0.00 | 44 | 1008.7 |
| 20260503193208 | 64 | 265 | 4.3 | 7.0 | 0.00 | 0.00 | 0.00 | 44 | 1008.6 |
| 20260503192703 | 64 | 201 | 5.2 | 6.1 | 0.00 | 0.00 | 0.00 | 45 | 1008.7 |
| 20260503192159 | 62 | 198 | 7.8 | 9.6 | 0.00 | 0.00 | 0.00 | 45 | 1008.7 |
| 20260503191655 | 63 | 243 | 7.8 | 11.3 | 0.00 | 0.00 | 0.00 | 46 | 1008.8 |
| 20260503191153 | 63 | 196 | 6.1 | 7.0 | 0.00 | 0.00 | 0.00 | 46 | 1008.9 |
| 20260503190649 | 63 | 207 | 5.2 | 6.1 | 0.00 | 0.00 | 0.00 | 45 | 1008.7 |
| 20260503190146 | 61 | 192 | 4.3 | 6.1 | 0.00 | 0.00 | 0.00 | 47 | 1008.7 |
| 20260503185643 | 61 | 181 | 7.0 | 7.8 | 0.00 | 0.00 | 0.00 | 48 | 1008.8 |
| 20260503185138 | 61 | 197 | 5.2 | 6.1 | 0.00 | 0.00 | 0.00 | 48 | 1008.9 |
| 20260503184634 | 61 | 192 | 5.2 | 9.6 | 0.00 | 0.00 | 0.00 | 47 | 1008.8 |
| 20260503184130 | 61 | 169 | 12.2 | 13.9 | 0.00 | 0.00 | 0.00 | 47 | 1009.1 |
| 20260503183627 | 61 | 169 | 6.1 | 9.6 | 0.00 | 0.00 | 0.00 | 48 | 1009.0 |
| 20260503183124 | 62 | 199 | 8.7 | 13.9 | 0.00 | 0.00 | 0.00 | 47 | 1009.1 |
| 20260503182622 | 61 | 293 | 7.8 | 8.7 | 0.00 | 0.00 | 0.00 | 48 | 1009.2 |
| 20260503182120 | 60 | 173 | 13.0 | 20.0 | 0.00 | 0.00 | 0.00 | 48 | 1009.3 |
| 20260503181617 | 61 | 163 | 13.0 | 15.6 | 0.00 | 0.00 | 0.00 | 50 | 1009.4 |
| 20260503181114 | 61 | 204 | 7.0 | 8.7 | 0.00 | 0.00 | 0.00 | 49 | 1009.6 |
| 20260503180611 | 61 | 159 | 12.2 | 13.9 | 0.00 | 0.00 | 0.00 | 50 | 1009.6 |
| 20260503180109 | 61 | 238 | 5.2 | 7.0 | 0.00 | 0.00 | 0.00 | 51 | 1010.0 |
| 20260503175605 | 61 | 188 | 8.7 | 14.8 | 0.00 | 0.00 | 0.00 | 54 | 1010.0 |
| 20260503175102 | 59 | 184 | 10.4 | 12.2 | 0.00 | 0.00 | 0.00 | 55 | 1010.1 |
| 20260503174559 | 58 | 207 | 6.1 | 7.8 | 0.00 | 0.00 | 0.00 | 57 | 1010.2 |
| 20260503174056 | 58 | 242 | 5.2 | 8.7 | 0.00 | 0.00 | 0.00 | 57 | 1010.3 |
| 20260503173551 | 57 | 198 | 12.2 | 14.8 | 0.00 | 0.00 | 0.00 | 57 | 1010.8 |
| 20260503173047 | 56 | 203 | 5.2 | 7.0 | 0.00 | 0.00 | 0.00 | 59 | 1010.6 |
| 20260503172545 | 56 | 152 | 4.3 | 5.2 | 0.00 | 0.00 | 0.00 | 60 | 1011.2 |
| 20260503172042 | 55 | 231 | 3.5 | 7.0 | 0.00 | 0.00 | 0.00 | 61 | 1010.9 |
| 20260503171538 | 55 | 69 | 7.8 | 13.0 | 0.00 | 0.00 | 0.00 | 60 | 1011.4 |
| 20260503171036 | 55 | 197 | 11.3 | 15.6 | 0.00 | 0.00 | 0.00 | 60 | 1011.2 |
| 20260503170532 | 55 | 155 | 4.3 | 6.1 | 0.00 | 0.00 | 0.00 | 61 | 1011.3 |
| 20260503150924 | 57 | 174 | 6.1 | 8.7 | 0.00 | 0.00 | 0.00 | 54 | 1012.6 |
| 20260503150421 | 57 | 206 | 9.6 | 11.3 | 0.00 | 0.00 | 0.00 | 54 | 1012.5 |
| 20260503131314 | 54 | 207 | 5.2 | 7.0 | 0.00 | 0.00 | 0.00 | 52 | 1013.2 |
| 20260503130812 | 53 | 227 | 3.5 | 5.2 | 0.00 | 0.00 | 0.00 | 53 | 1013.2 |
| 20260503130309 | 53 | 218 | 6.1 | 7.8 | 0.00 | 0.00 | 0.00 | 52 | 1013.0 |
| 20260503110703 | 50 | 232 | 4.3 | 7.0 | 0.00 | 0.00 | 0.00 | 52 | 1013.0 |
| 20260503110200 | 50 | 217 | 5.2 | 6.1 | 0.00 | 0.00 | 0.00 | 52 | 1013.2 |
| 20260503100126 | 50 | 220 | 8.7 | 12.2 | 0.00 | 0.00 | 0.00 | 50 | 1013.3 |
| 20260503081516 | 47 | 246 | 1.7 | 1.7 | 0.00 | 0.00 | 0.00 | 54 | 1014.2 |
| 20260503081013 | 48 | 238 | 2.6 | 2.6 | 0.00 | 0.00 | 0.00 | 54 | 1014.3 |
| 20260503080509 | 47 | 242 | 3.5 | 4.3 | 0.00 | 0.00 | 0.00 | 53 | 1014.1 |
| 20260503072443 | 47 | 255 | 4.3 | 5.2 | 0.00 | 0.00 | 0.00 | 55 | 1014.2 |
| 20260503071940 | 47 | 240 | 3.5 | 4.3 | 0.00 | 0.00 | 0.00 | 55 | 1014.3 |
| 20260503071437 | 46 | 249 | 3.5 | 5.2 | 0.00 | 0.00 | 0.00 | 55 | 1014.4 |
| 20260503070933 | 46 | 283 | 1.7 | 2.6 | 0.00 | 0.00 | 0.00 | 56 | 1014.3 |
| 20260503070430 | 46 | 227 | 1.7 | 2.6 | 0.00 | 0.00 | 0.00 | 57 | 1014.5 |
| 20260503054844 | 46 | 200 | 0.9 | 1.7 | 0.00 | 0.00 | 0.00 | 59 | 1015.0 |
| 20260503054339 | 46 | 238 | 1.7 | 1.7 | 0.00 | 0.00 | 0.00 | 58 | 1015.2 |
| 20260503053837 | 46 | 251 | 2.6 | 2.6 | 0.00 | 0.00 | 0.00 | 58 | 1015.1 |
| 20260503053336 | 46 | 214 | 0.9 | 1.7 | 0.00 | 0.00 | 0.00 | 58 | 1015.1 |
| 20260503052832 | 46 | 253 | 1.7 | 2.6 | 0.00 | 0.00 | 0.00 | 59 | 1015.3 |
| 20260503052329 | 46 | 233 | 2.6 | 2.6 | 0.00 | 0.00 | 0.00 | 59 | 1015.4 |
| 20260503051825 | 46 | 190 | 0.9 | 1.7 | 0.00 | 0.00 | 0.00 | 59 | 1015.3 |
| 20260503051321 | 45 | 228 | 1.7 | 1.7 | 0.00 | 0.00 | 0.00 | 60 | 1015.3 |
| 20260503050818 | 45 | 204 | 0.0 | 0.9 | 0.00 | 0.00 | 0.00 | 61 | 1015.2 |
| 20260503050314 | 45 | 194 | 1.7 | 1.7 | 0.00 | 0.00 | 0.00 | 61 | 1015.5 |
| 20260503045812 | 45 | 172 | 0.9 | 0.9 | 0.00 | 0.00 | 0.00 | 62 | 1015.4 |
| 20260503045310 | 45 | 238 | 1.7 | 1.7 | 0.00 | 0.00 | 0.00 | 62 | 1015.4 |
| 20260503044806 | 45 | 205 | 0.9 | 0.9 | 0.00 | 0.00 | 0.00 | 62 | 1015.5 |
| 20260503044303 | 45 | 208 | 0.9 | 0.9 | 0.00 | 0.00 | 0.00 | 61 | 1015.5 |
| 20260503043800 | 45 | 219 | 1.7 | 1.7 | 0.00 | 0.00 | 0.00 | 61 | 1015.5 |
| 20260503043257 | 45 | 205 | 0.9 | 0.9 | 0.00 | 0.00 | 0.00 | 62 | 1015.4 |
| 20260503042753 | 44 | 234 | 0.9 | 1.7 | 0.00 | 0.00 | 0.00 | 63 | 1015.4 |
| 20260503042250 | 45 | 213 | 0.9 | 0.9 | 0.00 | 0.00 | 0.00 | 62 | 1015.6 |
| 20260503041745 | 45 | 209 | 0.9 | 1.7 | 0.00 | 0.00 | 0.00 | 62 | 1015.3 |
| 20260503041244 | 45 | 215 | 0.9 | 0.9 | 0.00 | 0.00 | 0.00 | 62 | 1015.5 |
| 20260503040741 | 45 | 201 | 1.7 | 2.6 | 0.00 | 0.00 | 0.00 | 62 | 1015.6 |
| 20260503040238 | 45 | 229 | 0.9 | 0.9 | 0.00 | 0.00 | 0.00 | 62 | 1015.4 |
| 20260503035735 | 46 | 238 | 2.6 | 2.6 | 0.00 | 0.00 | 0.00 | 61 | 1015.7 |
| 20260503035233 | 45 | 232 | 1.7 | 1.7 | 0.00 | 0.00 | 0.00 | 61 | 1015.7 |
| 20260503034730 | 45 | 215 | 0.9 | 0.9 | 0.00 | 0.00 | 0.00 | 62 | 1015.9 |
| 20260503034226 | 45 | 215 | 0.9 | 1.7 | 0.00 | 0.00 | 0.00 | 62 | 1015.7 |